Location: Newark
(15.4608°S, 41.1635°W)
Time: 00:48:31
(UTC+00:00)

Tiros 1 despin weight - All Passes

Search period start: 31 July 2021 00:00
Search period end: 10 August 2021 00:00
Orbit: 593 x 642 km, 48.2° (Epoch: 30 July)

Date Brightness Start Highest point End Pass type
(mag) Time Alt. Az. Time Alt. Az. Time Alt. Az.
31 Jul - 01:39:32 10° NNW 01:43:35 34° NE 01:47:38 10° ESE night (unlit)
31 Jul - 03:21:44 10° W 03:25:04 20° SW 03:28:23 10° S night (unlit)
31 Jul - 11:59:00 10° SSW 12:03:29 63° SE 12:08:00 10° NE daylight
31 Jul - 13:43:53 10° WNW 13:44:43 10° NW 13:45:32 10° NW daylight
01 Aug - 01:55:16 10° NW 01:59:46 88° SW 02:04:14 10° SE night (unlit)
01 Aug - 10:35:21 10° S 10:38:06 16° SE 10:40:51 10° E daylight
01 Aug - 12:15:20 10° SW 12:19:41 48° NW 12:24:04 10° NNE daylight
02 Aug - 00:31:28 10° N 00:34:43 19° NE 00:37:56 10° E night (unlit)
02 Aug - 02:11:58 10° WNW 02:16:01 33° SW 02:20:05 10° SSE night (unlit)
02 Aug - 10:50:22 10° SSW 10:54:30 36° SE 10:58:40 10° ENE daylight
02 Aug - 12:32:39 10° W 12:35:49 19° NW 12:39:00 10° N daylight
03 Aug - 00:46:28 10° NNW 00:50:51 51° NE 00:55:12 10° SE night (unlit)
03 Aug - 02:29:55 10° WSW 02:32:27 15° SW 02:34:59 10° S night (unlit)
03 Aug - 11:06:16 10° SW 11:10:46 87° NW 11:15:18 10° NE daylight
03 Aug - 23:24:38 10° NE 23:25:50 11° NE 23:27:02 10° ENE night (unlit)
04 Aug - 01:02:36 10° NW 01:07:03 59° SW 01:11:29 10° SSE night (unlit)
04 Aug - 09:42:01 10° S 09:45:28 22° SE 09:48:56 10° E daylight
04 Aug - 11:22:55 10° WSW 11:26:56 32° NW 11:30:59 10° NNE daylight
04 Aug - 23:38:02 10° N 23:41:57 28° NE 23:45:49 10° ESE night (unlit)
05 Aug - 01:19:42 10° W 01:23:22 24° SW 01:27:01 10° S night (unlit)
05 Aug - 09:57:27 10° SSW 10:01:49 52° SE 10:06:12 10° NE daylight
05 Aug - 11:41:07 10° WNW 11:43:03 13° NW 11:44:59 10° NNW daylight
05 Aug - 23:53:35 10° NW 23:58:06 77° NE 00:02:36 10° SE night (unlit)
06 Aug - 01:38:53 10° SW 01:39:52 11° SW 01:40:51 10° SSW night (unlit)
06 Aug - 08:34:14 10° SSE 08:36:23 13° SE 08:38:32 10° ESE visible
06 Aug - 10:13:38 10° SW 10:18:02 58° NW 10:22:27 10° NNE daylight
06 Aug - 22:30:10 10° NNE 22:33:04 17° NE 22:35:56 10° E visible
07 Aug - 00:10:05 10° WNW 00:14:21 40° SW 00:18:36 10° SSE night (unlit)
07 Aug - 08:48:54 10° SSW 08:52:49 30° SE 08:56:45 10° ENE daylight
07 Aug - 10:30:42 10° WSW 10:34:11 22° NW 10:37:39 10° N daylight
07 Aug - 22:44:53 10° NNW 22:49:12 42° NE 22:53:28 10° ESE visible
08 Aug - 00:27:41 10° W 00:30:44 18° SW 00:33:46 10° S night (unlit)
08 Aug - 09:04:39 10° SW 09:09:06 78° SE 09:13:35 10° NE daylight
08 Aug - 23:00:49 10° NW 23:05:22 72° SW 23:09:54 10° SE visible
09 Aug - 07:40:41 10° S 07:43:47 18° SE 07:46:52 10° E visible
09 Aug - 09:21:08 10° WSW 09:25:17 38° NW 09:29:27 10° NNE daylight
09 Aug - 21:36:35 10° N 21:40:17 24° NE 21:43:58 10° ESE visible
09 Aug - 23:17:43 10° WNW 23:21:40 28° SW 23:25:36 10° SSE visible
